Find Lemur-2-Vukasin

NORAD ID: 66785 Int'l Des: 2025-276 Owner: SPIRE/LACU Country: US Constellation: spire operational
LEOCIRCULARRETROGRADESSO

現在のビュー

3D地球を読み込み中...

About Lemur-2-Vukasin

Lemur-2-Vukasin (NORAD 66785) is a spire constellation satellite launched Nov 28, 2025 by SPIRE/LACU of US. It operates in LEO, CIRCULAR, RETROGRADE, SSO orbit with a mass of 5.00 kg.

Lemur-2-Vukasinについて

説明を読み込み中...

次回通過

Passes for default location (London). Set your location on the main map for personalized predictions.

高度履歴

Loading altitude history...

軌道要素

1 66785U 25276EA 26169.76277765 .00004145 00000-0 33450-3 0 9997
2 66785 97.5302 240.6552 0005991 120.8957 239.2857 15.00380830 30388
Epoch: Jun 18, 2026 • Age: 13 hours

現在のステータス

高度 571.0 km
速度 7.58 km/s
衛星直下点 42.59°N, 142.83°W
打ち上げ日 Nov 28, 2025
運用期間 0.5 years
タイプ other

技術仕様

分類 Payload
質量 5.00 kg
乾燥質量 5.00 kg
総質量 5.00 kg
長さ 0.40 m
直径 0.10 m
スパン 0.40 m
形状 Box
製造者 SPIREG
バスタイプ Cubesat 4U
フェーズステータス In Orbit
所有者/国 SPIRE/LACU/US

Most Searched